Wind_Speed
22 21 20 19 18 17 16 15 15 15 14 14 14 13 13 12 11 9 7 6 4 3 1 3 5 7 8 10 11 13 15 17 19 22 24 26 29 31 32 33 35 37 38 37 35 34 34 34 33 32 30 31 32 31 31 30 30 30 29 27 26 25 23 23 22 21 20 19 19 18 16 13 11 10 10 12 15 16 17 17 17 18 18 18 18
23 22 21 20 19 18 17 16 15 14 13 14 13 12 12 12 11 10 9 7 4 2 2 3 4 6 8 9 11 13 15 18 20 22 24 26 28 31 32 32 34 36 37 37 36 34 34 34 33 31 29 29 31 31 31 30 30 30 30 29 28 27 25 24 22 21 19 19 20 18 16 14 11 8 7 8 10 13 15 15 16 17 18 18 19
24 23 22 21 20 19 18 17 15 14 14 14 12 11 12 12 11 10 10 7 5 3 3 4 5 6 8 9 11 14 16 19 21 22 24 26 28 30 32 32 34 36 37 37 36 34 33 33 32 31 29 28 30 30 30 30 29 30 30 29 29 28 27 26 23 21 19 19 20 18 16 14 12 9 6 4 5 8 10 12 14 15 16 17 18
24 23 22 22 20 19 19 18 16 15 15 14 13 13 13 13 10 10 8 7 6 5 4 5 6 7 8 10 12 15 17 19 21 22 24 26 28 30 32 32 33 35 36 37 36 34 33 33 32 30 28 27 28 30 30 30 29 29 29 29 29 29 28 27 25 23 20 18 19 18 16 15 12 10 6 3 4 5 7 8 10 11 13 15 16
25 24 23 22 21 20 19 18 17 16 15 14 14 15 15 12 10 9 8 7 7 7 6 6 7 8 9 11 13 15 17 18 20 22 24 26 28 30 32 33 33 35 36 36 36 34 32 32 32 30 28 27 28 29 30 30 29 29 29 29 29 28 28 27 26 24 21 18 17 17 16 15 13 10 8 6 4 5 6 6 7 8 9 11 12
26 25 24 22 22 21 20 19 18 16 16 16 16 17 16 13 10 10 9 9 9 9 8 9 9 9 10 12 14 16 17 19 21 23 24 26 28 30 32 33 33 35 36 36 36 34 32 32 32 30 28 27 27 28 30 29 29 29 29 29 29 28 27 27 26 25 22 20 17 16 14 14 13 11 10 9 6 5 5 5 6 6 6 7 8
26 25 24 23 23 22 20 19 18 17 17 17 18 18 16 14 12 11 10 11 11 11 11 11 11 11 12 13 15 17 18 20 21 23 25 26 28 30 31 32 34 35 36 37 36 35 32 31 31 30 29 27 26 27 29 28 28 28 29 29 29 28 28 27 26 24 23 21 18 15 14 13 12 11 10 10 8 6 5 4 4 4 4 4 5
26 25 24 24 24 23 21 19 18 18 19 18 18 17 16 15 13 12 12 12 12 12 12 12 12 12 13 14 16 17 19 20 22 23 25 26 28 29 30 32 33 35 36 37 36 35 33 31 30 29 28 26 25 26 27 27 27 28 28 28 29 28 28 27 26 25 24 22 19 16 14 12 11 11 10 10 8 8 6 4 3 2 2 2 2
27 26 25 25 25 23 21 19 18 19 19 18 18 17 16 15 14 13 13 13 13 13 14 14 13 13 14 15 17 18 20 21 22 24 25 26 28 29 30 32 33 34 36 36 36 35 32 30 29 28 26 25 24 24 26 26 26 27 27 28 28 28 28 27 26 26 25 23 21 18 15 13 11 11 10 9 8 7 6 5 4 3 2 1 1
27 27 26 26 26 23 21 20 19 19 19 18 18 17 16 15 14 13 13 13 13 14 14 14 14 14 15 16 18 19 20 21 23 24 26 27 28 29 30 31 33 35 36 37 35 34 32 30 28 27 25 24 23 23 25 25 25 26 27 27 28 28 28 27 26 25 25 24 22 20 17 15 13 11 9 8 8 7 6 5 5 4 4 3 3
27 27 27 27 26 23 21 20 20 20 19 18 18 17 17 16 15 14 13 13 13 14 14 14 14 14 15 17 18 19 21 22 23 24 26 28 29 30 30 32 33 36 37 37 35 32 31 29 28 26 25 23 22 22 23 24 24 25 26 27 28 28 27 27 26 25 24 24 22 21 20 19 16 13 10 9 8 8 7 6 6 6 6 6 5
27 28 28 28 26 24 22 21 21 21 20 19 18 18 17 17 16 15 14 13 14 14 14 14 14 15 16 17 18 20 21 22 24 25 27 28 30 31 31 32 34 36 38 37 33 31 30 29 27 26 24 22 21 21 21 22 23 24 25 26 27 28 27 26 25 25 24 23 22 22 22 21 19 15 12 10 8 8 8 8 7 7 7 7 7
26 28 28 28 26 24 22 22 22 22 21 19 19 19 18 17 16 15 14 14 14 15 15 15 15 15 16 17 19 20 21 22 24 26 28 29 30 31 31 32 34 36 38 36 31 29 30 28 26 25 23 21 20 19 19 19 21 23 24 25 27 28 27 26 25 24 23 22 22 22 22 21 20 17 14 11 9 8 8 8 8 8 8 8 9
27 29 29 28 26 25 23 22 22 22 21 20 19 19 18 18 17 16 15 15 15 16 16 15 15 16 16 17 18 19 21 23 25 27 29 30 31 30 30 31 33 36 36 34 29 28 29 28 25 24 22 20 19 18 17 17 19 21 23 24 26 26 26 26 25 23 22 22 21 21 22 23 22 20 17 14 12 10 10 11 11 12 12 13 13
27 29 29 29 27 26 24 23 23 23 21 20 20 19 19 18 17 17 16 15 16 16 16 16 16 17 17 17 18 20 21 23 25 27 29 30 31 30 29 30 32 34 35 33 29 28 29 27 24 23 22 20 18 17 16 16 17 19 22 23 24 25 25 25 24 23 22 21 20 20 21 23 24 23 22 21 20 19 19 19 19 19 19 19 19
25 27 28 28 26 25 25 24 24 24 23 22 21 20 20 20 19 18 16 16 16 17 16 16 17 17 17 17 18 20 21 23 25 27 29 30 30 29 28 29 30 32 33 32 30 28 28 26 23 22 21 19 18 16 15 15 16 18 20 22 22 23 24 24 23 22 20 19 18 18 20 22 24 26 26 26 27 27 26 26 25 24 24 23 23
25 26 27 27 26 25 25 25 25 25 24 23 23 22 21 21 20 19 17 17 17 17 16 17 17 18 17 18 19 21 22 24 26 27 29 30 30 29 29 29 31 32 32 32 30 28 27 25 22 21 20 19 18 16 15 14 15 17 19 21 21 22 22 23 23 21 19 17 16 16 17 20 22 24 26 26 27 27 27 26 26 24 23 23 22
26 26 27 28 28 27 26 26 25 26 25 25 24 23 22 22 21 19 18 17 17 16 16 17 18 18 18 19 20 21 23 24 25 27 29 31 31 30 30 31 32 31 31 31 29 27 26 24 21 20 19 18 17 16 14 14 14 16 18 19 20 20 21 21 21 20 17 15 14 14 15 16 18 20 22 24 25 25 25 25 25 23 22 22 21
27 27 29 30 29 28 27 27 27 27 26 26 25 24 23 23 22 20 19 18 16 16 16 17 18 18 18 20 21 22 23 24 25 27 29 31 31 30 30 31 32 32 30 29 26 25 24 22 20 19 19 17 16 16 14 13 13 14 16 17 19 19 19 20 20 18 16 14 12 11 12 13 14 16 18 19 20 21 21 23 23 22 21 21 20
29 30 30 31 30 29 27 27 28 28 27 26 26 24 22 22 21 20 19 17 15 15 17 18 18 18 19 21 23 24 25 26 27 28 29 30 30 29 29 30 32 32 30 26 23 23 23 21 19 19 18 16 16 15 14 13 12 13 14 16 18 18 18 18 18 17 15 13 10 8 8 10 10 11 12 14 15 16 18 19 20 20 21 20 19
33 33 32 31 30 29 28 28 29 28 27 27 26 24 21 21 21 20 18 16 15 16 18 18 18 19 20 22 24 26 27 29 29 29 29 30 29 28 28 29 32 32 28 23 21 21 21 19 18 19 18 16 15 15 14 13 12 13 14 15 17 17 16 16 16 15 14 12 9 7 6 6 7 7 7 8 10 12 14 16 17 18 18 18 18
35 35 34 33 31 30 28 28 29 29 28 28 26 22 20 21 21 19 17 15 15 17 18 19 19 20 21 24 26 27 28 30 29 29 29 29 29 28 27 29 31 30 25 20 19 20 20 19 18 18 17 15 14 14 14 13 12 12 13 15 16 16 15 14 14 14 13 11 8 5 4 4 4 4 4 5 7 9 11 13 14 15 16 16 17
36 36 35 33 32 30 29 28 28 29 29 28 26 21 20 22 21 19 17 16 16 18 19 19 20 21 23 25 27 28 29 30 30 29 28 29 28 27 26 28 30 27 21 17 18 20 20 18 17 18 17 15 13 14 14 13 12 12 13 14 14 14 13 13 13 12 11 10 7 5 3 2 2 2 3 4 5 7 8 10 12 13 15 16 16
37 36 34 32 31 30 29 28 28 29 30 29 25 21 21 22 21 19 18 18 18 19 20 21 22 23 24 27 28 29 30 30 30 30 29 29 28 25 24 27 28 24 19 16 17 19 19 18 17 17 17 15 13 13 13 13 12 12 12 12 13 12 11 11 11 11 10 9 7 5 3 1 1 1 2 3 4 6 7 9 11 12 14 15 16
37 35 33 32 32 31 29 30 30 30 30 29 24 22 22 23 21 19 19 19 19 20 21 22 23 24 25 27 28 29 30 30 31 30 29 28 27 24 23 26 26 21 17 16 16 18 19 17 17 17 16 14 13 13 13 13 12 11 11 11 11 11 10 10 10 10 10 8 6 4 3 2 2 2 2 3 4 6 7 8 10 12 13 14 15
35 34 34 33 33 32 31 31 33 32 31 28 24 23 24 23 21 20 20 20 21 22 22 23 24 25 26 27 27 29 29 30 30 30 28 27 26 24 23 25 23 20 17 15 16 18 18 17 16 16 15 14 12 12 12 12 11 10 10 10 10 10 9 9 10 10 9 8 6 5 3 3 2 3 3 4 5 6 7 8 10 11 12 13 14
34 32 34 34 32 31 32 33 34 32 31 29 26 24 23 23 21 21 22 22 23 23 23 25 26 26 26 27 28 29 28 27 26 25 24 24 23 23 23 24 22 19 16 15 16 17 18 17 16 16 14 13 11 11 12 12 11 10 10 9 9 9 9 9 9 9 8 8 7 6 4 4 4 3 3 4 5 6 7 8 10 11 12 13 13
35 32 33 33 32 32 33 34 34 32 30 29 27 24 23 23 23 24 24 24 24 24 25 26 26 26 26 26 27 27 26 25 23 23 23 23 23 23 23 22 20 18 16 15 16 17 17 17 16 15 14 12 11 10 11 11 11 10 9 8 8 8 9 9 8 8 7 7 7 6 6 5 5 4 4 5 6 6 7 8 9 10 11 12 13
33 32 32 32 32 33 34 34 33 32 30 29 27 24 24 25 25 26 25 24 25 26 26 26 27 27 26 26 25 25 26 25 24 24 24 25 25 24 22 20 18 17 16 16 16 17 17 16 15 15 14 12 11 10 10 10 10 9 8 8 8 8 9 8 7 7 7 6 6 6 6 6 6 5 5 6 6 7 8 9 10 11 11 12 12
33 30 31 32 33 34 35 34 32 31 30 29 27 26 26 27 27 27 26 25 26 27 26 27 28 28 26 25 25 26 27 27 26 25 25 25 25 24 21 19 18 16 15 16 17 17 17 16 15 14 13 12 10 10 10 10 9 8 7 7 7 8 8 7 6 6 5 5 6 6 6 6 6 6 6 6 7 8 9 9 10 11 11 11 11
34 33 31 32 34 35 34 32 32 32 31 29 27 27 28 28 27 26 26 25 26 26 26 28 31 31 27 24 23 25 27 27 26 26 24 23 23 22 20 18 17 16 15 16 16 16 16 16 15 14 14 12 10 8 8 9 8 7 7 7 7 7 7 5 4 5 4 4 5 5 5 5 5 6 6 7 8 9 9 10 10 11 11 11 11
23 31 34 33 34 35 34 32 31 31 30 29 28 28 27 26 25 25 25 25 26 26 27 29 31 31 27 24 23 25 26 26 26 25 23 22 21 20 19 17 16 15 15 16 16 16 15 15 15 14 13 13 11 9 8 8 7 6 6 7 7 7 6 4 3 3 3 4 4 4 4 5 5 6 6 7 8 8 9 10 10 10 11 11 12
9 18 27 29 28 28 29 31 30 29 27 27 27 26 25 24 25 27 27 26 26 27 29 30 31 29 26 24 24 25 26 25 26 25 23 21 20 19 18 16 15 14 14 15 15 15 15 14 14 14 13 12 12 11 9 7 6 6 7 7 7 7 5 3 2 2 3 3 3 4 4 4 5 5 6 6 7 8 9 9 10 10 11 12 12
10 10 15 18 17 16 18 23 25 24 23 24 24 23 23 24 26 27 27 26 26 28 29 29 29 28 25 25 25 26 26 26 27 25 22 20 19 18 17 15 13 13 14 14 14 14 14 14 14 14 13 11 11 11 10 7 6 6 7 7 8 7 5 3 2 2 3 3 3 4 4 4 5 5 6 6 7 8 9 10 10 11 11 12 13
12 13 13 14 14 13 12 14 17 18 18 19 19 19 20 22 24 25 25 24 25 26 25 25 25 25 25 26 27 28 28 28 27 24 20 18 18 17 16 14 13 13 13 14 14 14 14 14 14 14 14 12 11 11 10 8 7 7 7 7 8 7 6 4 3 2 2 3 3 3 4 4 5 5 6 6 7 8 9 10 11 12 12 13 14
16 16 16 15 15 14 13 13 14 14 15 17 17 18 19 20 21 22 22 22 23 24 24 24 24 25 26 27 27 27 26 25 23 20 18 17 17 16 15 14 13 13 14 14 15 14 14 14 15 15 14 13 12 11 10 8 7 7 8 8 8 7 6 5 4 2 2 3 3 4 4 4 5 5 6 7 8 9 10 11 12 13 13 14 14
21 20 20 19 18 17 16 16 16 16 16 17 18 18 19 19 20 20 21 21 21 22 24 25 25 25 25 26 26 25 24 22 19 17 17 17 16 15 15 14 13 14 14 15 15 15 14 15 15 15 15 14 13 11 10 9 8 8 8 8 8 7 7 6 5 3 3 3 4 4 5 5 6 6 8 9 10 11 12 12 13 14 14 15 15
24 24 23 22 21 21 20 19 18 18 18 18 19 19 19 19 19 20 20 20 20 21 23 24 24 23 24 24 24 24 23 21 18 17 17 17 16 15 15 14 14 14 15 15 15 15 14 15 15 15 15 15 13 12 11 10 9 8 8 8 8 8 7 7 6 5 4 4 4 5 5 6 8 9 10 11 12 13 13 13 14 14 15 15 16
27 27 26 26 25 24 23 22 21 20 20 20 20 20 19 19 19 20 20 20 20 20 21 21 22 23 23 23 23 23 22 20 19 18 18 17 16 16 15 15 14 15 15 15 15 15 15 16 16 16 16 15 14 12 11 10 10 9 9 8 8 8 8 8 7 6 4 4 5 5 6 8 9 11 12 13 13 13 14 14 14 15 15 16 16
30 30 30 29 29 28 27 25 24 23 22 21 21 21 21 20 20 20 21 21 21 20 20 21 21 21 22 22 22 22 21 20 20 19 18 17 16 16 16 16 16 16 16 17 17 16 16 16 17 17 17 16 14 13 12 11 11 10 10 9 9 9 9 8 8 6 5 5 5 6 8 9 11 12 13 14 14 14 14 14 15 16 16 16 17
33 33 33 33 33 32 29 27 26 25 24 23 22 22 22 22 22 22 22 22 21 21 21 21 21 20 20 20 20 20 19 19 20 19 18 17 16 17 17 17 18 18 19 19 18 18 17 17 18 18 17 16 15 14 13 13 12 11 11 10 10 10 9 9 8 7 6 6 7 8 9 11 13 14 14 15 15 15 15 15 15 16 17 17 17
35 36 35 35 35 34 31 29 28 26 25 24 23 23 22 22 23 23 23 23 23 22 22 22 21 19 19 18 18 17 17 17 18 18 18 17 16 17 18 18 19 19 20 20 19 19 19 18 18 18 18 17 16 15 14 14 13 12 12 11 12 11 11 10 9 8 7 8 9 10 11 13 14 15 16 16 16 17 17 17 17 17 17 18 17
37 37 37 37 36 35 33 30 28 26 25 25 23 22 22 23 23 24 24 24 24 23 23 22 20 19 18 17 16 16 16 17 18 18 18 17 17 17 18 19 19 19 20 20 20 20 19 18 17 18 17 17 16 16 15 15 15 14 13 13 13 13 12 11 10 9 8 9 10 11 13 14 16 17 17 17 17 18 19 19 19 18 18 18 17
35 36 36 36 36 36 34 32 29 27 26 25 23 23 23 23 24 25 25 25 25 24 23 21 20 19 17 17 16 16 16 17 19 19 19 19 18 18 18 18 19 19 19 20 19 19 17 16 16 17 17 17 17 17 17 17 16 15 14 14 14 15 14 13 11 10 10 11 12 13 15 16 17 18 19 18 18 18 19 20 21 20 19 18 17
35 35 35 35 36 36 35 33 30 28 26 25 24 24 24 24 24 25 25 25 24 23 22 21 20 18 17 17 17 17 17 18 19 20 20 20 20 19 18 18 18 18 18 18 17 16 15 14 14 16 16 17 17 18 18 18 18 17 16 16 16 16 16 14 13 13 12 12 14 15 17 18 19 20 20 20 20 20 20 21 21 21 20 18 17
36 35 35 35 35 34 33 31 28 26 25 25 24 24 24 25 25 26 26 25 25 24 22 21 19 18 17 17 16 17 18 19 20 21 22 21 20 20 19 17 17 17 16 16 15 14 13 13 14 15 16 17 18 18 19 19 19 18 17 17 17 18 17 16 16 15 15 15 16 17 19 20 20 20 20 21 22 22 22 21 21 21 20 18 17
36 35 34 33 32 31 29 27 26 25 25 25 25 25 25 26 26 26 26 26 25 24 23 21 19 18 17 16 16 16 18 20 22 23 22 21 21 20 19 18 17 16 16 16 15 14 14 14 15 15 16 17 18 19 20 20 20 20 19 19 19 19 19 18 18 18 17 17 18 19 20 21 21 21 21 21 22 23 23 23 21 20 19 18 17
36 35 33 31 29 28 27 26 26 26 26 25 25 25 26 27 27 27 27 26 25 24 23 22 20 18 17 17 16 16 17 19 22 23 23 22 21 21 20 19 17 16 17 17 16 15 15 15 15 16 17 17 18 19 20 20 21 21 21 21 20 20 20 21 21 20 20 20 20 21 22 22 22 21 21 21 22 22 23 23 22 20 19 18 17
37 35 33 31 28 27 26 26 26 26 26 26 26 26 27 27 27 27 27 26 25 24 23 22 20 19 17 17 17 16 16 18 20 22 22 22 22 21 21 20 18 17 17 17 17 16 16 16 17 17 17 17 18 19 20 21 21 21 21 22 22 22 22 22 23 22 22 21 21 22 22 22 22 21 21 22 23 22 22 22 21 20 18 18 18
39 38 35 32 29 27 26 27 27 27 27 27 27 27 28 28 28 28 27 27 26 25 24 22 21 20 19 18 17 17 16 17 18 20 21 22 23 22 21 21 20 18 18 18 17 17 17 17 18 18 19 18 18 19 20 21 21 21 21 22 22 23 23 24 24 23 23 22 22 22 22 22 21 21 22 22 23 22 22 21 20 19 18 18 18
38 40 38 34 31 28 27 27 27 27 27 28 28 28 29 29 29 28 28 27 26 25 24 23 21 20 20 20 19 19 18 17 18 19 21 22 24 24 23 22 21 20 19 18 17 17 17 17 18 19 20 19 19 19 20 21 21 21 21 22 22 23 24 24 24 24 23 22 22 21 21 21 21 21 21 22 22 22 22 21 20 20 19 19 20
Wind_Direction
182 184 186 188 191 194 196 196 192 192 187 182 185 182 170 171 178 174 173 180 175 168 249 323 338 344 346 346 346 342 337 339 341 342 343 343 344 345 348 352 353 352 352 353 355 356 356 358 359 359 2 4 3 1 2 4 7 7 5 3 0 357 354 352 352 355 358 360 359 356 349 337 319 294 273 257 249 250 253 254 256 259 258 258 258
184 185 187 188 191 194 199 201 199 199 195 191 193 188 180 184 185 178 184 195 187 184 258 304 323 328 333 334 332 332 334 338 340 341 341 341 341 342 344 349 352 352 352 353 354 355 356 358 359 359 1 4 3 2 3 5 7 6 6 5 4 3 1 358 357 357 0 4 6 5 1 353 341 322 299 274 257 252 254 255 255 256 256 257 259
186 186 188 190 193 194 198 202 202 202 201 198 195 191 196 200 194 189 191 194 194 211 250 287 309 317 321 323 325 330 335 338 338 339 339 339 338 338 342 347 351 352 351 352 354 354 355 358 359 358 359 2 4 3 2 4 6 6 5 4 4 5 4 3 1 1 3 5 9 12 11 6 0 355 342 305 270 259 255 254 254 254 255 258 261
187 187 189 192 194 196 198 201 202 202 203 200 190 191 205 209 201 200 201 198 208 228 252 280 298 306 313 320 325 330 333 335 335 335 336 336 335 336 340 345 349 350 350 351 353 354 354 357 358 358 358 1 3 3 2 2 5 7 6 4 4 4 4 4 4 5 6 7 9 13 17 17 16 15 7 332 283 274 269 263 260 260 262 265 267
188 188 191 193 195 199 200 200 201 202 202 198 190 194 210 214 207 213 218 216 226 242 258 274 289 301 311 319 323 326 329 330 332 332 332 333 333 335 339 342 346 349 349 349 351 352 353 356 358 357 357 359 3 3 2 1 4 7 7 6 5 5 4 4 4 6 8 8 10 13 18 23 26 25 14 355 317 289 284 280 275 271 271 274 276
191 191 192 194 198 202 203 202 200 199 200 199 194 198 210 217 216 222 228 230 237 249 261 273 286 297 307 315 318 321 324 326 328 328 329 330 331 333 338 341 343 346 347 347 349 351 352 355 357 357 356 359 2 3 2 1 4 7 7 7 7 6 6 6 6 6 7 10 11 13 18 24 29 31 26 18 3 328 304 293 287 282 279 282 285
195 194 193 196 200 204 205 204 201 197 197 199 198 200 207 213 218 225 231 235 241 250 261 272 283 292 302 310 313 316 320 322 324 324 325 327 329 331 336 339 341 343 345 345 346 348 351 354 357 357 356 357 0 3 2 1 4 7 8 8 8 8 9 9 9 9 9 11 13 14 19 23 26 31 34 32 25 12 355 328 303 293 285 284 291
197 196 195 199 204 206 206 205 202 199 198 199 199 202 205 208 214 223 231 237 243 250 259 268 277 289 299 304 308 312 316 317 319 321 322 324 326 329 334 338 339 341 343 344 344 346 349 353 356 357 357 356 358 3 3 2 5 8 8 9 9 10 11 12 13 14 14 15 16 17 19 21 25 30 34 36 33 26 19 10 357 341 316 302 297
198 197 197 202 208 209 207 205 203 203 200 198 200 203 204 207 212 221 231 239 246 252 258 266 275 287 295 300 304 308 311 314 316 318 320 322 324 328 332 336 338 339 342 343 343 344 347 351 354 355 357 355 356 2 4 4 7 9 9 11 11 12 13 15 16 18 18 19 21 23 22 20 24 30 34 36 35 32 31 31 36 39 31 36 69
199 198 198 204 211 211 207 204 205 207 204 199 199 202 204 208 214 222 232 241 248 254 260 267 276 285 292 296 301 305 308 311 314 316 318 320 323 327 331 336 338 339 340 341 341 343 344 348 352 354 356 356 356 1 4 6 8 10 10 12 13 14 15 16 18 20 21 23 26 29 31 30 32 34 35 37 39 41 45 47 50 53 49 47 60
201 200 200 205 212 212 207 205 208 210 208 203 201 204 207 212 218 224 232 241 248 256 263 270 278 285 290 294 299 304 308 310 313 315 318 319 322 326 331 335 337 337 337 338 340 342 343 346 349 352 355 356 356 360 4 6 8 10 11 13 15 16 16 17 19 21 22 24 26 30 34 36 37 36 36 38 38 42 51 55 56 56 56 56 57
203 203 203 206 212 212 207 206 210 213 212 208 206 208 213 218 222 226 233 241 249 258 265 272 279 285 290 295 300 304 308 310 313 316 318 320 322 326 331 335 337 336 334 335 339 342 343 345 347 349 353 355 356 357 1 5 7 8 10 12 15 17 17 17 18 20 22 24 25 27 32 35 36 35 37 41 42 46 55 61 63 61 60 63 66
206 207 207 208 211 213 210 208 212 216 216 213 211 214 219 223 226 229 234 242 250 259 266 272 280 285 290 295 299 304 308 311 314 316 319 321 323 327 333 337 337 334 333 335 340 343 343 343 345 347 351 353 354 354 356 2 4 4 6 9 13 16 17 17 18 19 22 24 26 29 32 34 36 37 40 45 50 51 53 57 61 63 64 67 69
207 208 209 209 210 213 213 212 214 218 218 216 215 216 221 227 229 231 236 243 251 259 265 272 279 284 289 294 298 304 308 311 314 317 319 322 325 329 334 337 336 335 336 339 342 343 343 342 343 345 348 351 352 349 350 357 0 360 1 5 9 12 15 17 18 19 22 25 28 32 35 37 39 42 47 51 54 54 53 55 58 62 65 69 70
209 210 212 211 211 212 213 214 217 220 220 219 218 218 223 228 230 233 237 242 251 258 265 272 279 284 289 294 299 304 308 310 313 316 319 322 326 329 332 333 334 336 338 340 342 343 342 340 341 343 345 348 350 346 344 350 354 355 357 0 4 8 12 15 17 19 23 28 32 37 40 43 48 53 57 61 64 65 65 66 67 69 70 72 73
210 213 214 215 215 215 216 217 219 221 223 222 222 222 225 230 233 234 237 243 252 260 268 275 280 285 290 296 300 304 307 309 312 315 318 321 324 328 330 330 332 335 337 338 339 340 340 339 339 342 343 345 346 344 340 343 349 351 353 356 1 5 10 14 16 19 24 30 37 43 47 51 57 62 64 66 68 69 69 69 69 69 70 70 69
210 212 213 215 217 218 220 221 222 224 226 226 226 226 228 234 237 238 241 247 255 265 273 279 282 288 295 300 302 304 306 309 312 315 316 317 320 324 327 328 329 331 334 334 335 337 338 337 337 340 341 342 344 341 337 338 343 347 350 355 359 3 8 12 15 19 25 32 41 50 55 58 63 67 68 67 67 67 66 66 66 64 64 63 62
207 210 211 213 215 218 220 222 225 228 229 230 230 229 232 236 240 242 245 251 260 268 275 280 284 291 299 302 303 305 307 309 312 313 314 315 316 317 321 324 326 327 330 331 332 335 336 335 336 339 340 341 342 339 335 333 337 343 349 353 356 360 6 11 13 17 24 33 44 55 61 64 68 70 70 68 66 64 62 61 60 57 56 55 53
206 209 211 213 214 216 218 222 227 231 233 234 235 234 235 238 241 245 248 253 261 269 275 280 287 294 299 300 301 304 306 308 309 310 311 312 313 314 315 319 322 324 327 329 331 334 334 333 335 338 339 340 341 338 333 329 331 338 345 349 351 355 4 9 11 14 21 31 46 58 65 70 72 73 70 66 63 60 57 54 52 49 48 47 45
207 210 212 213 214 216 218 222 228 232 235 237 239 238 238 241 244 246 250 255 261 269 275 280 287 293 295 297 300 302 304 306 308 309 310 310 311 312 313 315 318 321 324 328 331 333 331 331 334 337 338 339 340 338 334 328 326 330 338 344 346 351 0 7 8 11 16 27 43 59 69 74 77 76 71 65 60 55 50 46 43 39 38 37 36
208 211 214 214 215 216 219 224 228 233 236 239 242 242 242 244 246 248 251 256 261 268 274 279 285 290 293 296 299 301 306 309 309 309 309 308 309 311 311 312 315 319 323 328 332 332 329 329 334 336 337 338 339 337 335 329 325 325 331 337 342 347 356 3 6 8 12 20 34 53 70 76 78 77 70 61 53 45 38 33 30 28 27 26 25
210 213 215 215 215 216 220 226 230 234 238 241 243 245 245 247 249 250 253 257 261 266 272 277 283 288 292 295 299 302 307 309 309 307 305 305 307 308 309 311 314 317 322 329 333 330 326 327 333 335 335 337 338 337 336 331 326 324 327 333 339 344 351 0 5 6 9 15 23 37 58 71 71 69 59 44 36 30 23 20 18 17 16 16 17
213 216 217 217 216 217 220 226 232 236 239 243 244 245 246 248 250 253 256 259 262 265 271 277 283 287 293 297 300 304 306 306 306 304 300 301 304 305 305 309 313 315 320 328 332 328 323 325 332 335 334 335 336 337 336 333 328 326 327 332 336 340 348 359 3 3 6 11 16 20 29 46 53 50 36 21 14 10 8 7 7 7 8 10 11
214 217 219 220 219 220 223 226 232 237 240 243 244 243 245 249 250 253 257 259 261 266 271 278 284 289 295 299 301 303 305 304 305 302 296 296 301 301 302 309 313 314 318 327 329 324 320 324 331 333 333 333 334 336 337 334 330 328 329 332 335 339 347 357 0 0 2 7 11 11 9 350 331 350 356 353 350 350 352 354 358 1 3 4 7
218 220 221 222 221 222 225 228 232 236 239 242 243 241 243 247 250 252 256 258 262 267 273 280 287 291 294 297 298 301 303 304 303 301 296 295 297 296 300 310 313 311 315 324 325 320 318 322 328 331 331 331 330 333 336 334 329 328 331 334 335 339 347 354 357 358 359 2 5 8 3 340 305 299 314 324 328 332 336 343 350 356 358 1 4
224 222 220 220 222 223 227 231 233 236 239 241 241 240 241 246 250 253 257 260 263 269 274 280 284 286 290 295 297 299 302 303 301 298 295 294 292 290 297 308 310 308 311 319 320 316 315 319 324 327 329 328 327 331 334 330 326 329 333 334 335 339 345 351 354 356 358 359 360 0 357 343 317 301 301 308 314 319 327 337 346 352 356 359 1
221 220 217 218 222 225 230 234 235 237 239 241 241 240 242 247 251 254 257 260 264 269 274 277 281 285 291 297 298 298 300 302 302 300 298 296 293 291 297 305 305 303 309 315 315 313 312 316 320 323 325 325 324 327 329 325 325 331 332 331 334 338 341 347 352 356 359 1 0 357 352 345 338 329 321 317 320 325 333 340 346 350 353 356 357
217 218 216 217 221 226 232 236 238 240 242 243 244 243 244 248 251 253 257 261 266 270 273 276 281 287 292 296 298 298 298 301 303 304 302 301 299 297 299 301 300 300 306 312 311 309 309 312 315 318 322 322 319 321 324 322 324 327 327 327 332 335 337 344 353 359 4 7 6 1 355 349 345 344 341 339 339 339 340 343 346 349 351 353 353
218 219 217 216 218 224 230 236 239 242 244 247 248 247 247 249 252 255 260 264 267 269 271 275 279 282 285 289 294 296 296 297 299 301 301 302 301 300 299 298 296 298 304 308 308 307 307 308 310 313 317 317 315 318 322 320 319 319 319 324 328 329 333 343 355 6 12 15 15 10 2 354 349 346 346 346 345 343 343 343 344 346 347 349 352
226 225 222 220 219 222 228 233 237 240 243 246 248 249 251 253 255 259 262 263 264 267 271 275 277 278 279 283 289 292 293 293 294 297 300 301 301 300 299 294 292 295 302 306 306 305 304 305 306 309 313 312 311 314 316 314 313 313 314 318 322 323 329 342 359 13 20 25 27 22 10 360 355 351 349 348 346 344 343 342 343 345 347 351 357
233 232 229 225 223 223 226 231 235 239 241 243 246 249 252 254 255 257 259 260 263 267 272 275 276 277 279 282 285 289 291 292 292 295 299 301 300 299 294 288 288 294 301 304 304 302 301 301 303 307 311 309 306 305 303 302 305 307 306 310 315 318 324 338 0 15 20 26 32 26 12 1 356 352 350 348 346 345 345 346 349 353 354 356 358
236 234 234 231 228 225 224 226 232 238 241 243 246 249 251 252 252 255 258 260 263 266 269 272 275 277 281 284 285 286 288 288 289 293 297 298 297 293 286 281 284 293 301 303 302 299 298 298 300 304 308 306 302 299 295 293 296 298 298 302 307 310 315 329 357 12 11 15 22 19 7 357 351 351 352 353 352 353 353 355 359 0 358 354 351
262 236 230 229 226 221 216 218 226 234 239 243 247 250 252 252 252 256 260 263 264 266 267 269 272 276 280 283 282 282 281 281 285 291 294 293 289 283 276 275 282 293 300 302 300 297 294 296 299 302 304 302 298 296 294 292 289 286 288 295 301 302 302 312 343 7 3 359 5 6 1 356 355 359 3 3 3 2 358 357 357 356 351 347 344
295 268 239 232 231 223 214 214 219 228 239 247 250 253 254 255 257 261 264 264 265 267 268 268 270 273 277 279 278 277 275 277 283 289 290 286 278 270 267 271 281 292 297 298 296 293 292 295 298 301 301 298 291 288 288 284 276 273 279 289 295 294 291 297 319 352 354 349 354 2 6 7 7 7 9 7 3 359 354 351 351 349 346 343 341
268 273 267 261 260 255 242 228 223 227 239 249 254 255 255 255 258 262 264 264 265 267 269 269 270 271 274 275 275 274 273 275 279 283 282 274 264 259 263 270 279 288 292 292 291 290 292 296 298 300 301 296 285 279 277 272 264 265 273 283 289 287 284 290 305 332 348 349 353 360 4 6 4 360 359 358 356 353 349 346 344 344 344 342 340
248 251 256 260 263 262 260 255 247 243 246 251 253 254 252 252 254 257 260 262 263 266 269 271 270 271 274 275 275 274 273 273 274 274 270 260 253 254 262 270 277 283 286 288 288 289 292 296 297 298 300 295 284 275 270 264 256 257 267 277 282 280 281 288 296 316 338 341 343 345 345 348 351 350 350 349 347 345 343 341 340 341 341 340 338
249 248 248 249 251 253 254 254 253 252 252 253 254 253 252 252 253 254 257 259 262 265 268 269 268 272 277 279 276 273 271 270 268 263 255 247 248 255 263 269 275 280 282 283 285 288 292 295 296 298 299 294 282 272 267 261 253 253 262 271 275 274 277 283 290 301 317 322 327 332 333 336 339 340 339 339 337 336 336 335 335 336 336 335 334
252 253 253 252 253 253 253 254 254 254 254 255 255 256 256 256 255 255 257 259 263 267 269 269 269 274 281 282 278 272 267 264 260 250 243 243 249 256 262 267 272 277 279 281 283 287 291 294 294 295 297 292 281 269 263 258 252 251 257 265 269 269 272 279 284 290 301 309 317 325 329 331 332 331 330 330 330 329 330 330 330 331 332 332 331
252 255 257 257 258 258 257 257 258 260 260 260 260 260 260 259 258 258 259 261 263 267 271 273 274 277 280 280 276 269 263 258 251 242 239 243 250 255 260 266 271 274 276 279 282 286 290 292 291 291 292 289 279 266 258 255 251 251 255 260 262 265 271 276 279 283 289 299 311 321 326 328 328 326 325 325 324 324 325 325 325 327 328 328 328
247 252 256 258 259 260 260 261 262 263 264 264 264 264 263 262 261 260 260 261 263 266 271 274 276 279 279 277 272 266 259 252 245 240 239 245 251 256 261 266 270 273 275 277 281 285 288 289 288 286 286 284 277 264 255 251 248 248 252 256 257 260 268 273 274 275 280 291 305 316 322 325 325 324 322 321 319 319 320 321 322 323 324 326 326
243 248 252 256 258 259 260 262 263 264 265 264 264 264 264 263 263 262 261 261 262 265 268 271 274 277 277 273 268 262 253 245 240 240 244 249 254 259 264 267 271 274 276 278 280 283 285 285 284 282 281 280 275 263 253 249 247 246 248 251 252 255 261 264 264 267 276 290 302 312 318 321 322 321 320 318 316 315 316 317 318 320 321 322 322
244 246 250 253 256 258 260 261 262 263 262 262 262 263 263 263 263 262 261 261 261 263 266 268 271 273 273 269 263 256 247 242 242 245 250 253 257 261 266 270 273 276 278 279 280 281 281 280 279 277 277 277 274 264 252 247 246 246 247 249 251 252 253 253 254 264 278 291 301 309 316 319 320 320 318 316 314 313 313 314 315 316 317 317 318
247 248 249 252 255 258 260 262 263 262 260 259 260 262 263 263 263 262 261 260 261 261 263 265 267 269 269 265 259 253 248 246 247 250 252 254 257 261 267 272 276 278 279 280 280 279 276 274 273 274 274 274 272 265 254 246 243 244 246 248 250 250 248 247 249 261 276 288 297 306 313 317 319 318 316 314 313 312 312 313 313 313 313 314 314
246 248 249 251 254 257 260 263 264 262 258 257 259 261 261 261 261 261 260 260 260 260 262 264 265 266 266 263 259 256 254 253 254 255 255 255 257 261 267 274 278 281 282 282 279 274 270 266 267 271 273 273 270 264 255 247 244 244 245 248 250 249 247 246 250 260 273 284 294 303 310 314 316 316 314 312 311 311 311 311 312 312 312 311 310
245 247 249 252 255 258 260 263 263 259 255 255 257 259 258 258 259 260 260 260 261 261 262 263 264 264 263 261 259 258 257 258 260 261 261 260 261 263 268 276 282 284 284 282 275 268 264 263 267 271 273 273 270 264 255 249 245 244 246 249 251 250 248 248 253 263 273 283 292 299 305 310 313 313 311 310 309 310 311 311 310 310 309 307 306
243 246 249 252 255 258 260 260 258 253 251 252 255 256 257 257 258 259 260 261 262 263 263 264 265 265 263 261 260 260 261 263 266 266 265 265 265 266 269 276 282 284 281 277 270 265 265 266 269 272 273 272 269 264 257 250 246 245 246 249 252 253 251 251 255 263 272 280 289 296 301 305 308 309 308 307 308 310 311 311 310 308 306 304 302
241 243 245 248 251 253 255 254 252 248 248 250 253 255 256 258 258 260 261 261 262 263 264 265 265 264 261 258 256 256 257 261 266 268 268 268 267 266 267 273 279 279 276 272 267 265 266 268 269 271 272 270 267 263 258 252 248 246 247 248 251 254 255 256 259 264 271 278 285 292 296 300 303 304 304 304 306 308 310 310 310 308 304 301 300
242 243 243 244 246 248 248 247 247 246 246 248 250 252 255 257 259 260 261 261 261 262 263 264 264 261 257 255 254 254 255 258 262 265 266 267 266 264 264 268 273 275 273 270 267 265 266 268 269 270 271 269 265 261 258 254 250 248 249 251 253 254 257 259 262 266 272 277 283 288 292 296 299 300 301 302 304 306 308 309 309 306 302 299 298
246 246 244 242 242 243 243 243 243 243 244 246 248 251 254 256 259 260 260 261 261 261 262 262 261 258 255 254 255 258 260 261 262 261 260 260 261 261 262 265 270 272 271 270 268 266 267 269 270 270 270 268 264 260 257 255 252 250 250 252 254 256 257 260 262 266 271 276 281 285 289 292 294 296 298 301 303 304 305 306 306 304 300 296 295
247 248 247 245 241 240 241 241 241 241 242 244 247 250 253 255 257 259 259 259 259 259 259 259 258 257 256 256 258 261 265 267 265 261 258 257 259 260 261 264 267 269 269 269 268 266 266 268 269 268 268 267 264 260 257 255 254 252 252 253 255 257 258 260 262 265 269 273 278 282 286 289 292 294 297 299 301 302 303 304 304 302 299 296 296
246 246 247 246 242 238 239 240 240 240 240 242 245 249 252 254 256 257 258 257 257 257 257 256 255 255 256 258 260 262 265 266 266 263 260 258 259 261 262 263 265 266 266 265 265 265 265 266 267 267 267 266 264 260 257 256 255 255 254 254 256 257 258 261 263 266 269 272 276 280 283 287 290 294 296 298 299 300 302 303 303 301 299 297 297
Height
5927 5929 5931 5932 5934 5936 5937 5938 5940 5941 5942 5943 5943 5943 5943 5943 5944 5944 5945 5945 5945 5945 5944 5944 5943 5943 5942 5942 5942 5941 5940 5939 5937 5936 5933 5931 5928 5925 5923 5920 5917 5914 5910 5907 5903 5900 5897 5894 5890 5887 5884 5881 5878 5875 5872 5869 5866 5863 5860 5857 5854 5851 5849 5846 5844 5841 5838 5835 5832 5830 5829 5828 5827 5826 5826 5826 5827 5827 5827 5827 5828 5828 5828 5828 5828
5925 5927 5929 5931 5932 5934 5936 5937 5938 5940 5941 5942 5943 5944 5943 5943 5943 5944 5944 5944 5944 5944 5943 5942 5942 5942 5941 5941 5941 5940 5939 5938 5936 5934 5932 5930 5927 5924 5922 5919 5917 5913 5910 5906 5903 5900 5897 5893 5890 5887 5884 5881 5878 5875 5872 5869 5866 5863 5860 5857 5854 5851 5848 5846 5843 5840 5838 5835 5832 5830 5828 5827 5826 5825 5825 5825 5825 5825 5825 5826 5826 5826 5826 5826 5826
5924 5925 5927 5929 5930 5932 5934 5935 5937 5938 5940 5941 5943 5943 5943 5943 5943 5943 5943 5944 5943 5943 5942 5942 5941 5941 5941 5941 5940 5939 5938 5936 5935 5933 5931 5928 5926 5923 5921 5919 5916 5912 5909 5906 5902 5899 5897 5893 5890 5887 5884 5881 5878 5875 5872 5869 5866 5863 5860 5857 5854 5851 5848 5846 5843 5840 5837 5835 5832 5830 5828 5827 5826 5825 5824 5824 5824 5824 5824 5824 5824 5824 5824 5824 5824
5922 5924 5925 5927 5929 5930 5931 5933 5935 5936 5938 5940 5941 5942 5942 5942 5943 5943 5943 5943 5942 5942 5942 5941 5940 5940 5940 5939 5938 5937 5936 5935 5934 5932 5930 5927 5925 5922 5920 5918 5915 5912 5908 5905 5902 5899 5896 5893 5890 5887 5884 5881 5878 5875 5872 5869 5866 5863 5860 5858 5854 5851 5848 5846 5843 5840 5838 5835 5833 5831 5829 5827 5826 5825 5824 5823 5823 5823 5822 5822 5822 5822 5822 5822 5822
5921 5923 5924 5925 5927 5928 5929 5931 5933 5934 5936 5938 5939 5940 5940 5941 5942 5942 5942 5941 5941 5941 5940 5940 5939 5939 5938 5938 5937 5936 5935 5934 5932 5930 5928 5926 5924 5921 5919 5917 5914 5911 5908 5905 5902 5899 5896 5893 5889 5886 5884 5881 5878 5875 5872 5869 5866 5863 5861 5858 5855 5852 5849 5846 5843 5840 5838 5835 5833 5831 5829 5828 5826 5825 5824 5823 5823 5822 5821 5821 5821 5821 5820 5820 5820
5920 5921 5923 5924 5925 5926 5927 5928 5930 5933 5934 5936 5937 5938 5938 5939 5940 5940 5940 5940 5939 5939 5939 5938 5938 5938 5937 5937 5936 5935 5933 5932 5931 5929 5927 5925 5923 5921 5918 5916 5913 5910 5907 5904 5901 5898 5895 5892 5889 5886 5883 5880 5877 5875 5872 5870 5867 5864 5861 5858 5855 5852 5849 5846 5843 5840 5838 5835 5833 5832 5830 5828 5827 5825 5824 5823 5822 5822 5821 5820 5820 5820 5819 5819 5818
5919 5920 5922 5923 5923 5924 5925 5927 5928 5931 5932 5934 5935 5936 5936 5937 5938 5939 5939 5938 5938 5937 5937 5937 5937 5936 5936 5935 5934 5933 5932 5930 5929 5927 5926 5924 5922 5920 5917 5915 5912 5909 5906 5903 5900 5898 5894 5891 5888 5886 5883 5880 5877 5875 5872 5870 5867 5864 5861 5859 5856 5853 5850 5847 5844 5841 5838 5836 5834 5832 5831 5829 5827 5826 5825 5824 5822 5821 5821 5820 5820 5819 5819 5818 5818
5917 5919 5921 5921 5922 5923 5924 5925 5927 5928 5930 5932 5934 5934 5935 5935 5936 5937 5937 5937 5937 5936 5936 5936 5935 5935 5935 5934 5933 5932 5930 5929 5928 5926 5924 5922 5920 5918 5916 5914 5911 5908 5905 5902 5900 5897 5894 5891 5888 5885 5883 5880 5878 5875 5873 5871 5868 5865 5862 5859 5856 5853 5850 5847 5845 5842 5839 5836 5834 5832 5831 5830 5828 5827 5825 5824 5823 5822 5821 5821 5820 5819 5819 5818 5817
5916 5918 5919 5920 5920 5922 5923 5925 5926 5927 5928 5930 5932 5933 5933 5934 5934 5935 5935 5935 5936 5935 5935 5934 5934 5934 5933 5932 5931 5930 5929 5928 5926 5925 5923 5921 5919 5917 5915 5912 5909 5906 5904 5901 5899 5896 5894 5891 5888 5886 5883 5880 5878 5876 5873 5871 5868 5865 5862 5860 5857 5854 5851 5848 5845 5842 5840 5837 5835 5833 5832 5830 5829 5827 5826 5825 5824 5823 5822 5821 5821 5820 5820 5819 5818
5914 5917 5918 5918 5919 5920 5922 5923 5924 5925 5926 5928 5930 5931 5932 5932 5932 5933 5933 5934 5934 5934 5934 5933 5933 5933 5932 5931 5930 5929 5928 5927 5925 5923 5921 5919 5917 5916 5914 5911 5908 5905 5902 5900 5898 5896 5893 5891 5888 5886 5883 5880 5878 5875 5873 5871 5868 5866 5863 5860 5857 5855 5852 5849 5846 5844 5841 5839 5837 5835 5833 5831 5830 5828 5827 5826 5825 5824 5823 5822 5821 5821 5821 5820 5819
5913 5915 5916 5916 5917 5919 5921 5922 5923 5923 5925 5926 5928 5929 5930 5931 5931 5931 5932 5932 5932 5932 5932 5932 5932 5932 5931 5930 5929 5928 5927 5925 5923 5922 5920 5918 5916 5914 5912 5910 5907 5904 5901 5899 5897 5895 5892 5890 5887 5885 5883 5880 5878 5875 5873 5871 5869 5866 5864 5861 5858 5855 5853 5850 5848 5845 5843 5840 5838 5837 5834 5832 5830 5829 5828 5826 5825 5824 5824 5823 5822 5822 5822 5821 5821
5911 5913 5914 5915 5916 5918 5920 5921 5921 5922 5923 5925 5926 5928 5929 5929 5929 5930 5930 5930 5931 5931 5931 5931 5931 5930 5929 5928 5927 5927 5925 5924 5922 5920 5919 5916 5914 5912 5910 5908 5905 5902 5899 5897 5895 5893 5891 5889 5886 5884 5882 5880 5877 5875 5874 5872 5869 5867 5865 5862 5859 5856 5854 5851 5849 5846 5844 5842 5840 5837 5835 5833 5831 5830 5828 5827 5826 5825 5825 5824 5823 5823 5823 5822 5822
5910 5912 5913 5914 5915 5917 5919 5920 5920 5920 5922 5923 5925 5926 5927 5928 5928 5928 5928 5929 5929 5929 5930 5930 5929 5929 5928 5927 5926 5925 5924 5922 5921 5919 5917 5915 5913 5911 5909 5906 5904 5901 5898 5896 5894 5892 5890 5888 5886 5883 5881 5879 5877 5875 5874 5872 5870 5867 5865 5863 5860 5857 5855 5853 5850 5848 5846 5843 5841 5839 5836 5835 5833 5831 5830 5828 5827 5826 5826 5825 5825 5825 5824 5824 5824
5908 5909 5911 5913 5914 5916 5917 5918 5919 5919 5920 5922 5923 5924 5925 5926 5926 5926 5927 5927 5927 5928 5928 5928 5928 5927 5926 5925 5924 5923 5922 5921 5919 5917 5916 5914 5912 5910 5908 5905 5902 5899 5897 5894 5892 5891 5889 5887 5885 5882 5880 5879 5877 5875 5873 5872 5870 5868 5865 5863 5861 5858 5856 5854 5852 5850 5847 5845 5843 5840 5838 5836 5834 5833 5831 5830 5829 5828 5828 5827 5827 5826 5826 5826 5826
5906 5908 5909 5911 5912 5914 5915 5916 5917 5918 5919 5920 5921 5922 5923 5924 5924 5924 5924 5925 5925 5926 5926 5927 5926 5925 5925 5924 5923 5922 5921 5919 5918 5916 5914 5913 5911 5909 5906 5903 5901 5898 5895 5893 5891 5890 5888 5886 5884 5882 5880 5878 5876 5874 5873 5871 5870 5868 5866 5864 5862 5860 5857 5855 5853 5851 5849 5847 5845 5843 5841 5839 5837 5835 5833 5832 5831 5831 5830 5830 5829 5829 5829 5828 5828
5905 5907 5908 5910 5911 5912 5914 5915 5915 5916 5917 5918 5919 5920 5921 5922 5922 5922 5922 5923 5923 5924 5925 5926 5925 5924 5923 5923 5922 5921 5919 5918 5916 5914 5913 5911 5909 5907 5905 5902 5899 5897 5894 5892 5890 5889 5887 5885 5883 5881 5879 5877 5875 5874 5872 5871 5869 5868 5866 5864 5862 5860 5858 5856 5854 5852 5850 5848 5847 5845 5843 5842 5840 5838 5837 5836 5835 5834 5833 5833 5832 5832 5832 5831 5831
5903 5905 5907 5908 5910 5911 5912 5913 5914 5914 5915 5916 5917 5918 5919 5920 5920 5920 5921 5921 5922 5923 5924 5924 5923 5922 5922 5921 5920 5919 5917 5916 5914 5913 5911 5909 5908 5906 5904 5901 5898 5895 5893 5891 5889 5888 5886 5884 5882 5880 5878 5876 5875 5873 5872 5870 5869 5868 5866 5864 5863 5861 5859 5857 5855 5853 5852 5850 5849 5847 5846 5844 5843 5842 5840 5839 5838 5837 5837 5836 5835 5835 5835 5834 5833
5901 5903 5904 5906 5907 5908 5909 5910 5912 5913 5914 5915 5915 5916 5917 5918 5918 5918 5919 5920 5921 5922 5922 5922 5921 5921 5920 5919 5918 5917 5915 5914 5912 5910 5909 5907 5905 5904 5902 5899 5896 5894 5891 5889 5887 5886 5885 5883 5881 5880 5878 5876 5874 5872 5871 5870 5869 5868 5866 5864 5863 5861 5859 5857 5856 5855 5853 5852 5850 5849 5848 5847 5846 5844 5843 5842 5841 5840 5840 5839 5838 5838 5837 5836 5836
5898 5899 5901 5902 5904 5906 5907 5908 5909 5911 5912 5913 5913 5914 5915 5915 5916 5917 5917 5918 5919 5920 5920 5920 5919 5919 5918 5917 5915 5914 5913 5911 5910 5908 5906 5905 5903 5902 5900 5898 5895 5892 5890 5888 5886 5885 5884 5882 5880 5879 5877 5875 5873 5872 5870 5869 5868 5867 5866 5865 5863 5861 5860 5858 5857 5855 5854 5853 5852 5850 5849 5848 5847 5846 5845 5844 5843 5843 5842 5841 5841 5840 5839 5838 5838
5894 5895 5896 5898 5901 5903 5905 5906 5907 5908 5910 5911 5911 5912 5913 5914 5914 5915 5915 5916 5917 5918 5917 5917 5917 5916 5915 5914 5913 5911 5910 5909 5907 5906 5904 5903 5901 5899 5898 5896 5893 5891 5888 5886 5885 5884 5882 5881 5879 5878 5876 5874 5873 5871 5870 5869 5868 5867 5866 5864 5863 5861 5860 5858 5857 5856 5855 5853 5852 5852 5851 5850 5849 5848 5847 5846 5846 5845 5844 5843 5842 5842 5841 5840 5839
5890 5891 5893 5895 5898 5900 5902 5904 5905 5906 5907 5908 5909 5910 5911 5912 5912 5912 5913 5915 5915 5915 5915 5915 5914 5913 5913 5911 5910 5909 5908 5907 5905 5904 5902 5900 5899 5897 5895 5893 5892 5889 5887 5885 5883 5882 5881 5880 5878 5877 5875 5873 5872 5870 5869 5868 5867 5866 5865 5864 5863 5861 5860 5858 5857 5856 5855 5854 5853 5852 5851 5851 5850 5849 5848 5848 5847 5846 5845 5844 5843 5843 5842 5841 5841
5887 5888 5890 5892 5895 5897 5899 5901 5902 5903 5904 5905 5906 5908 5909 5909 5910 5910 5911 5912 5913 5913 5913 5912 5912 5911 5910 5909 5908 5907 5905 5904 5903 5902 5900 5898 5897 5895 5893 5891 5890 5888 5885 5883 5882 5881 5880 5879 5877 5875 5874 5872 5871 5870 5868 5867 5866 5865 5864 5863 5862 5861 5860 5858 5857 5856 5855 5854 5853 5852 5852 5851 5850 5850 5849 5848 5847 5846 5846 5845 5844 5843 5843 5842 5841
5884 5886 5888 5891 5893 5895 5896 5898 5900 5901 5901 5902 5904 5906 5907 5907 5907 5908 5909 5910 5910 5910 5910 5910 5909 5908 5907 5907 5906 5904 5903 5902 5900 5899 5897 5896 5894 5893 5891 5889 5888 5886 5884 5882 5881 5880 5879 5878 5876 5874 5873 5871 5870 5869 5867 5866 5865 5864 5864 5863 5862 5861 5859 5858 5857 5856 5855 5854 5853 5852 5852 5851 5850 5849 5849 5848 5848 5847 5846 5845 5844 5844 5843 5842 5841
5881 5884 5887 5890 5892 5893 5894 5895 5897 5898 5898 5899 5902 5904 5904 5904 5905 5906 5907 5907 5907 5907 5907 5907 5907 5906 5905 5904 5903 5902 5900 5899 5897 5896 5894 5893 5892 5890 5889 5887 5886 5884 5882 5880 5880 5879 5878 5877 5875 5873 5872 5870 5869 5868 5867 5866 5865 5864 5863 5862 5861 5860 5859 5857 5856 5855 5854 5854 5853 5852 5851 5851 5850 5849 5849 5848 5847 5847 5846 5845 5844 5843 5843 5842 5841
5877 5881 5884 5887 5888 5889 5891 5892 5893 5894 5895 5897 5899 5900 5901 5901 5902 5904 5904 5904 5904 5904 5905 5905 5904 5903 5902 5901 5900 5899 5897 5896 5894 5892 5891 5890 5889 5888 5887 5885 5884 5882 5881 5879 5878 5878 5877 5875 5874 5872 5871 5869 5868 5867 5866 5865 5864 5863 5862 5861 5861 5860 5858 5857 5856 5855 5854 5853 5852 5852 5851 5850 5850 5849 5848 5848 5847 5846 5846 5845 5844 5843 5842 5841 5840
5873 5876 5879 5882 5884 5885 5888 5889 5889 5890 5892 5894 5896 5897 5897 5899 5900 5901 5901 5901 5902 5902 5902 5901 5901 5900 5899 5898 5897 5896 5895 5893 5891 5890 5889 5888 5886 5886 5884 5883 5882 5881 5879 5878 5877 5876 5875 5874 5872 5871 5869 5868 5867 5866 5865 5864 5863 5862 5861 5861 5860 5859 5858 5856 5855 5854 5853 5852 5852 5851 5851 5850 5849 5849 5848 5848 5847 5846 5845 5845 5844 5843 5842 5841 5840
5869 5872 5874 5877 5880 5883 5884 5885 5886 5888 5890 5892 5893 5894 5895 5896 5897 5898 5898 5898 5899 5899 5898 5898 5897 5897 5896 5895 5895 5894 5892 5891 5889 5887 5886 5885 5884 5883 5882 5881 5880 5879 5877 5876 5875 5875 5874 5873 5871 5869 5868 5867 5866 5865 5864 5864 5863 5861 5861 5860 5859 5858 5857 5855 5854 5853 5852 5851 5851 5851 5850 5850 5849 5848 5848 5847 5847 5846 5845 5844 5843 5842 5841 5840 5839
5865 5868 5871 5874 5877 5879 5881 5882 5883 5886 5888 5889 5890 5891 5893 5894 5894 5894 5895 5895 5896 5895 5895 5895 5894 5894 5893 5893 5892 5891 5890 5888 5886 5885 5884 5883 5882 5881 5880 5878 5877 5877 5875 5874 5874 5873 5873 5871 5870 5868 5867 5865 5865 5864 5863 5863 5862 5861 5860 5859 5858 5857 5856 5855 5853 5852 5851 5851 5850 5850 5850 5849 5849 5848 5848 5847 5846 5846 5845 5844 5843 5842 5841 5839 5838
5862 5866 5868 5871 5874 5876 5877 5879 5881 5884 5885 5886 5887 5889 5890 5890 5891 5891 5892 5893 5892 5892 5892 5892 5891 5890 5890 5890 5889 5888 5887 5886 5884 5883 5882 5881 5880 5879 5878 5876 5875 5874 5873 5873 5872 5872 5871 5870 5869 5867 5865 5864 5863 5862 5862 5862 5861 5860 5859 5858 5857 5856 5855 5854 5853 5852 5851 5850 5850 5849 5849 5849 5848 5848 5847 5847 5846 5845 5844 5843 5842 5841 5840 5838 5837
5861 5864 5867 5869 5871 5872 5873 5875 5878 5881 5882 5883 5884 5886 5886 5887 5887 5888 5889 5889 5889 5888 5889 5888 5887 5886 5887 5887 5887 5885 5884 5883 5882 5881 5880 5879 5877 5876 5875 5874 5873 5872 5871 5871 5871 5870 5869 5868 5867 5866 5864 5863 5862 5861 5860 5860 5860 5859 5858 5858 5857 5856 5855 5853 5852 5851 5850 5850 5849 5849 5849 5848 5848 5847 5847 5846 5845 5844 5844 5843 5841 5840 5839 5837 5836
5860 5863 5865 5866 5867 5867 5869 5872 5875 5876 5877 5879 5880 5881 5882 5883 5884 5884 5885 5885 5885 5885 5885 5884 5882 5882 5883 5884 5883 5882 5881 5880 5879 5878 5877 5875 5874 5873 5873 5872 5871 5870 5869 5869 5869 5868 5868 5867 5866 5864 5863 5862 5861 5860 5860 5859 5859 5858 5858 5857 5856 5855 5854 5853 5851 5850 5850 5849 5849 5848 5848 5848 5847 5847 5846 5845 5844 5843 5842 5841 5840 5839 5838 5836 5835
5858 5859 5861 5862 5863 5863 5864 5867 5869 5871 5873 5874 5876 5877 5879 5880 5881 5880 5880 5881 5881 5881 5880 5879 5878 5877 5879 5879 5879 5878 5877 5876 5875 5874 5873 5872 5871 5870 5870 5869 5869 5868 5867 5867 5867 5867 5866 5865 5864 5863 5862 5860 5860 5859 5859 5858 5857 5857 5857 5856 5856 5855 5854 5852 5851 5850 5849 5849 5848 5848 5848 5847 5847 5846 5845 5844 5843 5842 5841 5840 5840 5839 5837 5836 5834
5855 5857 5858 5859 5860 5860 5859 5859 5862 5866 5869 5870 5871 5873 5876 5877 5876 5876 5876 5877 5877 5877 5876 5874 5873 5873 5875 5875 5874 5873 5873 5872 5872 5871 5870 5869 5868 5868 5867 5867 5866 5866 5865 5865 5865 5865 5865 5864 5863 5862 5861 5859 5858 5857 5857 5857 5856 5856 5856 5856 5855 5854 5853 5852 5851 5850 5849 5848 5848 5847 5847 5846 5846 5845 5844 5844 5843 5842 5840 5840 5839 5838 5837 5835 5834
5852 5853 5855 5856 5857 5857 5857 5855 5856 5860 5864 5867 5868 5871 5872 5872 5872 5871 5872 5873 5873 5872 5872 5871 5870 5870 5871 5871 5870 5869 5869 5869 5868 5868 5867 5866 5865 5865 5865 5865 5864 5864 5864 5864 5864 5863 5863 5862 5861 5860 5860 5859 5857 5856 5856 5855 5855 5855 5855 5855 5854 5854 5853 5852 5850 5849 5849 5848 5847 5847 5846 5846 5845 5845 5844 5843 5842 5841 5840 5839 5838 5837 5836 5835 5833
5852 5852 5852 5853 5854 5855 5856 5854 5853 5857 5861 5864 5866 5867 5868 5868 5868 5868 5868 5868 5868 5868 5868 5867 5867 5866 5866 5866 5866 5866 5865 5865 5865 5864 5863 5863 5862 5862 5862 5862 5862 5862 5862 5862 5862 5862 5861 5860 5860 5859 5858 5857 5856 5855 5855 5854 5854 5854 5854 5854 5854 5853 5852 5851 5850 5849 5848 5848 5847 5846 5846 5845 5844 5844 5843 5843 5842 5841 5840 5838 5837 5836 5835 5834 5832
5852 5852 5852 5853 5854 5854 5855 5855 5855 5857 5860 5862 5863 5864 5864 5865 5865 5864 5864 5865 5864 5864 5864 5863 5863 5863 5863 5862 5862 5862 5861 5861 5861 5860 5860 5860 5860 5860 5860 5860 5860 5860 5860 5860 5860 5860 5859 5858 5858 5857 5856 5856 5855 5854 5854 5853 5853 5853 5853 5853 5853 5852 5852 5851 5850 5848 5848 5847 5847 5846 5845 5845 5844 5843 5842 5842 5841 5840 5839 5838 5836 5835 5834 5833 5831
5850 5851 5851 5852 5852 5853 5854 5855 5856 5857 5858 5859 5860 5860 5861 5861 5861 5861 5861 5861 5861 5861 5860 5860 5859 5859 5859 5858 5858 5858 5858 5858 5857 5857 5857 5857 5857 5857 5858 5858 5857 5857 5858 5858 5858 5858 5857 5857 5856 5855 5855 5854 5853 5853 5852 5852 5851 5851 5851 5851 5852 5851 5851 5850 5849 5848 5847 5847 5846 5846 5845 5844 5843 5842 5842 5841 5840 5839 5838 5837 5835 5834 5833 5832 5831
5846 5847 5848 5849 5849 5850 5851 5852 5854 5854 5855 5856 5857 5857 5857 5858 5858 5858 5858 5858 5858 5858 5857 5856 5856 5856 5856 5855 5854 5854 5854 5854 5854 5854 5854 5854 5854 5855 5855 5855 5855 5855 5856 5856 5856 5855 5855 5855 5854 5853 5853 5852 5852 5851 5851 5850 5850 5850 5850 5850 5850 5850 5850 5850 5849 5848 5847 5846 5845 5845 5844 5843 5842 5841 5841 5840 5839 5838 5837 5836 5834 5833 5832 5831 5829
5842 5843 5844 5845 5846 5846 5848 5849 5850 5851 5852 5853 5853 5853 5854 5854 5854 5854 5854 5854 5854 5854 5853 5853 5853 5853 5852 5851 5851 5851 5851 5851 5852 5852 5852 5852 5852 5852 5852 5853 5853 5853 5853 5854 5853 5853 5853 5852 5852 5851 5851 5850 5850 5850 5849 5849 5849 5849 5848 5849 5849 5849 5849 5848 5848 5847 5846 5845 5844 5844 5843 5842 5841 5840 5839 5838 5837 5836 5835 5834 5833 5832 5831 5830 5828
5839 5840 5841 5841 5842 5843 5844 5845 5846 5847 5848 5849 5849 5850 5850 5850 5850 5851 5850 5850 5850 5850 5850 5850 5849 5849 5849 5848 5848 5848 5848 5848 5849 5849 5849 5849 5849 5850 5850 5850 5850 5851 5851 5851 5851 5851 5851 5850 5850 5849 5849 5848 5848 5848 5847 5847 5847 5847 5847 5847 5847 5847 5847 5847 5846 5846 5845 5844 5844 5843 5842 5841 5840 5839 5838 5837 5836 5835 5834 5833 5832 5831 5830 5828 5827
5835 5836 5837 5838 5839 5840 5841 5842 5843 5844 5845 5845 5846 5846 5846 5846 5847 5847 5847 5847 5847 5847 5847 5846 5846 5846 5846 5845 5845 5845 5845 5846 5846 5846 5846 5846 5847 5847 5847 5848 5848 5848 5849 5849 5849 5848 5848 5848 5847 5847 5847 5846 5846 5845 5846 5846 5846 5846 5846 5845 5846 5846 5846 5845 5845 5844 5844 5843 5842 5842 5841 5840 5839 5838 5837 5836 5834 5834 5833 5832 5831 5829 5828 5827 5825
5831 5832 5834 5835 5835 5836 5838 5839 5840 5841 5841 5842 5842 5842 5843 5843 5843 5843 5843 5843 5843 5844 5844 5843 5843 5843 5843 5843 5842 5842 5842 5843 5843 5843 5844 5844 5844 5845 5845 5845 5845 5846 5846 5846 5846 5846 5845 5845 5845 5845 5844 5844 5843 5843 5844 5844 5844 5844 5844 5844 5844 5844 5844 5844 5843 5843 5842 5842 5841 5841 5840 5838 5837 5836 5835 5834 5833 5832 5831 5830 5829 5828 5826 5825 5824
5826 5828 5829 5831 5831 5832 5834 5835 5836 5837 5838 5838 5839 5839 5839 5839 5839 5839 5839 5840 5840 5840 5840 5840 5840 5840 5840 5840 5839 5839 5839 5840 5840 5840 5841 5841 5842 5842 5842 5842 5843 5843 5843 5843 5843 5842 5842 5842 5842 5842 5842 5842 5841 5841 5841 5842 5842 5842 5842 5842 5842 5842 5842 5842 5841 5841 5841 5840 5840 5839 5838 5837 5836 5835 5834 5833 5831 5830 5829 5828 5827 5826 5825 5823 5822
5821 5823 5825 5826 5827 5828 5830 5831 5833 5833 5834 5835 5835 5836 5836 5836 5836 5836 5836 5836 5836 5836 5836 5836 5836 5836 5836 5837 5836 5836 5836 5837 5837 5837 5837 5838 5839 5839 5839 5840 5840 5840 5840 5839 5839 5839 5839 5839 5840 5840 5840 5839 5839 5839 5839 5839 5840 5840 5840 5840 5840 5840 5840 5840 5840 5839 5839 5838 5838 5837 5836 5835 5834 5833 5832 5831 5830 5829 5827 5826 5824 5823 5822 5821 5820
5816 5817 5819 5821 5823 5824 5826 5827 5829 5830 5830 5831 5832 5832 5832 5832 5832 5832 5833 5833 5833 5832 5832 5832 5832 5833 5833 5833 5833 5833 5833 5833 5834 5834 5835 5835 5836 5837 5837 5837 5837 5837 5837 5836 5836 5836 5836 5836 5837 5837 5837 5837 5837 5837 5837 5837 5837 5837 5837 5837 5838 5838 5838 5838 5838 5837 5836 5836 5836 5835 5834 5833 5832 5831 5830 5828 5828 5827 5826 5824 5822 5821 5820 5819 5818
5811 5812 5814 5816 5818 5819 5821 5823 5824 5826 5827 5828 5828 5828 5829 5829 5829 5829 5829 5829 5829 5829 5829 5829 5829 5830 5830 5830 5830 5830 5830 5831 5831 5832 5832 5833 5833 5834 5834 5834 5834 5834 5834 5834 5834 5834 5833 5833 5833 5834 5834 5834 5834 5834 5835 5835 5835 5835 5835 5835 5835 5835 5836 5836 5835 5835 5834 5834 5833 5833 5832 5831 5830 5829 5828 5826 5825 5824 5823 5822 5821 5819 5818 5817 5816
5806 5808 5809 5811 5813 5814 5817 5818 5820 5821 5823 5824 5825 5825 5825 5825 5825 5826 5826 5825 5825 5825 5825 5825 5826 5826 5827 5827 5827 5827 5828 5828 5829 5829 5829 5829 5830 5831 5831 5831 5831 5832 5832 5832 5831 5831 5831 5830 5830 5831 5831 5831 5832 5832 5832 5832 5832 5832 5832 5833 5833 5833 5833 5833 5833 5832 5832 5831 5831 5830 5829 5828 5828 5827 5826 5825 5823 5822 5821 5820 5819 5817 5816 5815 5814
5803 5804 5805 5807 5808 5810 5812 5814 5815 5817 5819 5820 5821 5821 5821 5822 5822 5822 5822 5822 5822 5822 5822 5822 5822 5823 5823 5823 5824 5824 5825 5825 5825 5825 5825 5826 5826 5827 5828 5828 5829 5829 5829 5829 5829 5828 5828 5828 5828 5828 5828 5828 5829 5829 5829 5829 5829 5829 5829 5830 5830 5831 5831 5831 5830 5830 5829 5828 5828 5827 5827 5826 5825 5824 5824 5823 5822 5820 5819 5818 5816 5815 5814 5813 5812
5801 5801 5802 5803 5804 5806 5807 5809 5811 5812 5814 5815 5816 5817 5818 5818 5818 5818 5818 5819 5819 5819 5819 5819 5819 5819 5820 5820 5820 5821 5821 5821 5821 5821 5821 5822 5823 5823 5824 5825 5826 5826 5825 5825 5825 5825 5825 5825 5825 5825 5825 5825 5826 5826 5826 5826 5826 5826 5826 5826 5827 5827 5828 5828 5827 5827 5826 5826 5825 5824 5824 5823 5822 5822 5821 5820 5819 5818 5817 5816 5815 5814 5813 5811 5810
5797 5798 5799 5800 5801 5801 5802 5804 5806 5808 5809 5810 5812 5813 5814 5814 5815 5815 5815 5815 5816 5816 5816 5816 5816 5816 5816 5816 5817 5817 5817 5818 5818 5818 5818 5819 5819 5820 5821 5821 5822 5822 5822 5822 5822 5822 5822 5822 5822 5822 5822 5822 5822 5823 5823 5823 5823 5824 5824 5824 5824 5824 5824 5824 5824 5824 5824 5823 5822 5822 5821 5820 5820 5819 5818 5817 5816 5815 5815 5814 5813 5812 5811 5809 5808
5791 5793 5795 5797 5798 5798 5799 5800 5801 5803 5805 5806 5807 5808 5809 5810 5811 5811 5811 5812 5812 5813 5813 5813 5813 5813 5812 5812 5813 5813 5814 5815 5815 5815 5815 5815 5815 5816 5817 5817 5818 5818 5818 5819 5819 5819 5819 5819 5819 5819 5819 5819 5819 5819 5820 5820 5820 5820 5821 5821 5821 5821 5821 5821 5821 5821 5820 5820 5820 5819 5818 5817 5817 5816 5816 5815 5814 5813 5812 5811 5810 5809 5808 5807 5806